Starlink 4358

operational
NORAD ID: 53225 Int'l Des: 2022-084 Owner: SPXS Country: US Constellation: starlink
LEOCIRCULARRETROGRADESSO

关于 Starlink 4358

正在加载描述...

实时位置

正在加载3D地球...

即将过境

高度历史

Altitude vs Time

uPlot chart will show altitude changes over time

两行轨道根数

1 53225U 22084AN 25308.62668294 -.00000304 00000-0 -16845-4 0 9991
2 53225 97.6042 7.9001 0001569 92.3380 267.8026 15.05644353180567
Epoch: Nov 4, 2025 • Age: 15 hours

当前状态

高度 559.6 km
速度 7.59 km/s
星下点 63.96°N, 137.22°W
发射日期 Jul 22, 2022
运行时间 3.2 years
类型 internet

技术详情

分类 Payload
质量 297.00 kg
干质量 275.00 kg
总质量 297.00 kg
长度 0.20 m
直径 2.80 m
跨度 9.00 m
形状 Box + pan
制造商 SPXS
平台类型 Starlink
阶段状态 In Orbit
所有者/国家 SPXS/US

大型星座

Loading constellations...